NOZ1326 ENZV-EGCC

Flight info

Callsign NOZ1326
Flight time 1h 15m
Altitude 40000
Route LAPOT DCT ALOTI DCT TILNI
Aircraft B38M/M-SDE1FGHILORVWXY/HB1

Departure

Time 2026-04-17 06:37
Airport Stavanger Airport, Sola (ENZV)

Arrival

Time 2026-04-17 07:52
Airport Manchester Airport (EGCC)
Time Latitude Longitude Altitude Speed Heading
2026-04-17 06:14 58.88072 5.62678 28 ft 0 kts 15°
2026-04-17 06:28 58.88069 5.62676 28 ft 3 kts 15°
2026-04-17 06:29 58.88044 5.62662 27 ft 4 kts 15°
2026-04-17 06:29 58.88023 5.62651 27 ft 0 kts 15°
2026-04-17 06:32 58.88026 5.62655 27 ft 2 kts 30°
2026-04-17 06:32 58.88029 5.62690 27 ft 3 kts 112°
2026-04-17 06:32 58.88009 5.62732 27 ft 6 kts 133°
2026-04-17 06:32 58.87989 5.62823 29 ft 9 kts 100°
2026-04-17 06:33 58.87996 5.62982 29 ft 15 kts 71°
2026-04-17 06:33 58.88062 5.63166 30 ft 19 kts 45°
2026-04-17 06:33 58.88172 5.63296 32 ft 18 kts 12°
2026-04-17 06:33 58.88274 5.63351 34 ft 14 kts 59°
2026-04-17 06:34 58.88367 5.63429 33 ft 17 kts 359°
2026-04-17 06:34 58.88494 5.63424 33 ft 20 kts 359°
2026-04-17 06:34 58.88635 5.63420 34 ft 21 kts 359°
2026-04-17 06:34 58.88786 5.63416 34 ft 22 kts 359°
2026-04-17 06:35 58.88943 5.63412 31 ft 21 kts 359°
2026-04-17 06:35 58.89105 5.63407 29 ft 25 kts 359°
2026-04-17 06:35 58.89244 5.63404 28 ft 16 kts 359°
2026-04-17 06:35 58.89341 5.63470 22 ft 14 kts 74°
2026-04-17 06:36 58.89343 5.63673 21 ft 14 kts 103°
2026-04-17 06:36 58.89289 5.63740 23 ft 0 kts 181°
2026-04-17 06:36 58.89283 5.63740 23 ft 11 kts 181°
2026-04-17 06:36 58.88879 5.63750 28 ft 102 kts 179°
2026-04-17 06:37 58.87905 5.63769 71 ft 172 kts 177°
2026-04-17 06:37 58.86681 5.63749 1158 ft 170 kts 177°
2026-04-17 06:37 58.85499 5.63746 2291 ft 179 kts 178°
2026-04-17 06:37 58.84195 5.63790 3174 ft 188 kts 177°
2026-04-17 06:38 58.82867 5.63860 4091 ft 201 kts 178°
2026-04-17 06:38 58.81403 5.63929 4853 ft 220 kts 179°
2026-04-17 06:38 58.79801 5.63996 5611 ft 239 kts 180°
2026-04-17 06:38 58.78091 5.63935 6503 ft 250 kts 192°
2026-04-17 06:39 58.76539 5.62460 7591 ft 255 kts 218°
2026-04-17 06:39 58.75346 5.59825 8539 ft 266 kts 238°
2026-04-17 06:39 58.74737 5.56421 9594 ft 277 kts 258°
2026-04-17 06:39 58.74433 5.52720 10494 ft 282 kts 253°
2026-04-17 06:40 58.74016 5.48950 11082 ft 300 kts 254°
2026-04-17 06:40 58.73583 5.44923 11701 ft 313 kts 255°
2026-04-17 06:40 58.73148 5.40754 12496 ft 319 kts 255°
2026-04-17 06:40 58.72718 5.36514 13385 ft 324 kts 255°
2026-04-17 06:41 58.72288 5.32225 14194 ft 329 kts 255°
2026-04-17 06:41 58.71861 5.27947 14939 ft 332 kts 256°
2026-04-17 06:41 58.71424 5.23549 15691 ft 336 kts 256°
2026-04-17 06:41 58.70981 5.19104 16419 ft 339 kts 256°
2026-04-17 06:42 58.70533 5.14619 17149 ft 343 kts 256°
2026-04-17 06:42 58.70078 5.10089 17843 ft 346 kts 256°
2026-04-17 06:42 58.69618 5.05518 18537 ft 350 kts 255°
2026-04-17 06:42 58.69152 5.00893 19148 ft 353 kts 255°
2026-04-17 06:43 58.68687 4.96310 19748 ft 354 kts 255°
2026-04-17 06:43 58.68211 4.91624 20332 ft 357 kts 255°
2026-04-17 06:43 58.67731 4.86926 20936 ft 359 kts 255°
2026-04-17 06:43 58.67248 4.82208 21535 ft 360 kts 255°
2026-04-17 06:44 58.66763 4.77474 22140 ft 363 kts 256°
2026-04-17 06:44 58.66276 4.72757 22710 ft 365 kts 256°
2026-04-17 06:44 58.65779 4.67950 23278 ft 368 kts 256°
2026-04-17 06:44 58.65277 4.63120 23876 ft 370 kts 256°
2026-04-17 06:45 58.64769 4.58251 24408 ft 371 kts 256°
2026-04-17 06:45 58.64260 4.53370 24881 ft 375 kts 256°
2026-04-17 06:45 58.63638 4.48569 25356 ft 375 kts 246°
2026-04-17 06:45 58.62300 4.44324 25881 ft 372 kts 227°
2026-04-17 06:46 58.60335 4.41080 26366 ft 375 kts 214°
2026-04-17 06:46 58.58142 4.38294 26804 ft 379 kts 213°
2026-04-17 06:46 58.55917 4.35560 27331 ft 380 kts 212°
2026-04-17 06:46 58.53672 4.32868 27846 ft 382 kts 212°
2026-04-17 06:47 58.51404 4.30184 28309 ft 384 kts 212°
2026-04-17 06:47 58.49110 4.27495 28747 ft 387 kts 212°
2026-04-17 06:47 58.46801 4.24803 29170 ft 390 kts 212°
2026-04-17 06:47 58.44476 4.22100 29612 ft 392 kts 212°
2026-04-17 06:48 58.42140 4.19390 30037 ft 395 kts 212°
2026-04-17 06:48 58.39815 4.16697 30400 ft 397 kts 211°
2026-04-17 06:48 58.37447 4.13959 30792 ft 398 kts 212°
2026-04-17 06:48 58.35067 4.11211 31120 ft 401 kts 212°
2026-04-17 06:49 58.32669 4.08447 31454 ft 404 kts 212°
2026-04-17 06:49 58.30261 4.05676 31803 ft 406 kts 212°
2026-04-17 06:49 58.27834 4.02888 32125 ft 408 kts 212°
2026-04-17 06:49 58.25397 4.00093 32451 ft 411 kts 212°
2026-04-17 06:50 58.22944 3.97283 32767 ft 413 kts 212°
2026-04-17 06:50 58.20475 3.94461 33088 ft 415 kts 212°
2026-04-17 06:50 58.17991 3.91624 33387 ft 418 kts 212°
2026-04-17 06:50 58.15497 3.88783 33740 ft 419 kts 212°
2026-04-17 06:51 58.12997 3.85939 34178 ft 418 kts 212°
2026-04-17 06:51 58.10539 3.83146 34542 ft 417 kts 212°
2026-04-17 06:51 58.08048 3.80322 34840 ft 418 kts 212°
2026-04-17 06:51 58.05542 3.77485 35140 ft 419 kts 212°
2026-04-17 06:52 58.03042 3.74660 35443 ft 419 kts 212°
2026-04-17 06:52 58.00534 3.71829 35752 ft 420 kts 212°
2026-04-17 06:52 57.98018 3.68996 36048 ft 421 kts 212°
2026-04-17 06:52 57.95494 3.66155 36351 ft 421 kts 211°
2026-04-17 06:53 57.92974 3.63324 36646 ft 422 kts 212°
2026-04-17 06:53 57.90559 3.60328 36899 ft 421 kts 222°
2026-04-17 06:53 57.88438 3.56443 37214 ft 420 kts 224°
2026-04-17 06:53 57.86351 3.52678 37412 ft 422 kts 224°
2026-04-17 06:54 57.84238 3.48839 37712 ft 422 kts 225°
2026-04-17 06:54 57.82135 3.45000 37960 ft 422 kts 225°
2026-04-17 06:54 57.80026 3.41147 38221 ft 423 kts 225°
2026-04-17 06:54 57.77915 3.37292 38454 ft 423 kts 225°
2026-04-17 06:55 57.75803 3.33443 38695 ft 424 kts 225°
2026-04-17 06:55 57.73685 3.29590 38902 ft 424 kts 225°
2026-04-17 06:55 57.71569 3.25746 39078 ft 424 kts 225°
2026-04-17 06:55 57.69470 3.21940 39261 ft 424 kts 225°
2026-04-17 06:56 57.67342 3.18087 39445 ft 425 kts 225°
2026-04-17 06:56 57.65217 3.14247 39613 ft 425 kts 225°
2026-04-17 06:56 57.63089 3.10408 39771 ft 425 kts 225°
2026-04-17 06:56 57.60957 3.06568 39920 ft 425 kts 225°
2026-04-17 06:57 57.58856 3.02791 40083 ft 425 kts 225°
2026-04-17 06:57 57.54587 2.95133 40125 ft 424 kts 225°
2026-04-17 06:58 57.50331 2.87526 40107 ft 423 kts 224°
2026-04-17 06:58 57.46100 2.79991 40104 ft 423 kts 224°
2026-04-17 06:59 57.41834 2.72417 40101 ft 423 kts 224°
2026-04-17 06:59 57.37555 2.64847 40100 ft 424 kts 224°
2026-04-17 07:00 57.33304 2.57350 40090 ft 423 kts 224°
2026-04-17 07:00 57.29037 2.49853 40097 ft 422 kts 224°
2026-04-17 07:01 57.24793 2.42420 40099 ft 422 kts 224°
2026-04-17 07:01 57.20525 2.34970 40102 ft 422 kts 224°
2026-04-17 07:02 57.16262 2.27553 40093 ft 423 kts 224°
2026-04-17 07:02 57.11975 2.20120 40095 ft 423 kts 224°
2026-04-17 07:03 57.07703 2.12736 40080 ft 423 kts 224°
2026-04-17 07:03 57.03395 2.05316 40089 ft 423 kts 224°
2026-04-17 07:04 56.99101 1.97945 40088 ft 423 kts 224°
2026-04-17 07:04 56.94820 1.90620 40092 ft 423 kts 224°
2026-04-17 07:05 56.90510 1.83269 40083 ft 423 kts 224°
2026-04-17 07:05 56.86197 1.75939 40085 ft 423 kts 224°
2026-04-17 07:06 56.81910 1.68674 40075 ft 422 kts 224°
2026-04-17 07:06 56.77597 1.61391 40073 ft 421 kts 224°
2026-04-17 07:07 56.73306 1.54169 40078 ft 421 kts 224°
2026-04-17 07:07 56.68996 1.46938 40075 ft 421 kts 224°
2026-04-17 07:08 56.64666 1.39699 40081 ft 421 kts 223°
2026-04-17 07:08 56.60373 1.32543 40068 ft 421 kts 223°
2026-04-17 07:09 56.56046 1.25352 40049 ft 421 kts 223°
2026-04-17 07:09 56.51709 1.18172 40068 ft 422 kts 223°
2026-04-17 07:10 56.47403 1.11064 40063 ft 421 kts 223°
2026-04-17 07:10 56.43067 1.03930 40059 ft 421 kts 223°
2026-04-17 07:11 56.38712 0.96786 40064 ft 421 kts 223°
2026-04-17 07:11 56.34387 0.89716 40055 ft 421 kts 223°
2026-04-17 07:12 56.30033 0.82622 40044 ft 421 kts 223°
2026-04-17 07:12 56.25712 0.75603 40054 ft 421 kts 223°
2026-04-17 07:13 56.21356 0.68549 40053 ft 421 kts 223°
2026-04-17 07:13 56.17000 0.61519 40043 ft 421 kts 223°
2026-04-17 07:14 56.12662 0.54539 40064 ft 420 kts 223°
2026-04-17 07:14 56.08312 0.47562 40048 ft 419 kts 223°
2026-04-17 07:15 56.03962 0.40607 40039 ft 419 kts 223°
2026-04-17 07:15 56.00345 0.34841 40038 ft 419 kts 223°
2026-04-17 07:16 55.95993 0.27925 40040 ft 419 kts 223°
2026-04-17 07:16 55.90917 0.19883 40035 ft 419 kts 223°
2026-04-17 07:17 55.87289 0.14153 40035 ft 419 kts 223°
2026-04-17 07:17 55.80737 0.03844 40034 ft 419 kts 223°
2026-04-17 07:18 55.76366 -0.03008 40027 ft 419 kts 223°
2026-04-17 07:18 55.72010 -0.09814 40030 ft 419 kts 223°
2026-04-17 07:19 55.67625 -0.16643 40027 ft 419 kts 223°
2026-04-17 07:19 55.63235 -0.23461 40027 ft 419 kts 223°
2026-04-17 07:20 55.58870 -0.30218 40031 ft 419 kts 223°
2026-04-17 07:20 55.54474 -0.37003 40034 ft 419 kts 222°
2026-04-17 07:21 55.50096 -0.43738 40021 ft 419 kts 223°
2026-04-17 07:21 55.45676 -0.50518 40026 ft 421 kts 222°
2026-04-17 07:22 55.41249 -0.57287 40025 ft 420 kts 222°
2026-04-17 07:22 55.36851 -0.63991 40026 ft 421 kts 222°
2026-04-17 07:23 55.32422 -0.70722 40020 ft 421 kts 222°
2026-04-17 07:23 55.27987 -0.77442 40020 ft 421 kts 222°
2026-04-17 07:24 55.23555 -0.84136 40024 ft 418 kts 222°
2026-04-17 07:24 55.19177 -0.90728 40014 ft 417 kts 222°
2026-04-17 07:25 55.14768 -0.97348 40022 ft 417 kts 222°
2026-04-17 07:25 55.10349 -1.03961 40020 ft 417 kts 222°
2026-04-17 07:26 55.05966 -1.10503 39784 ft 415 kts 222°
2026-04-17 07:26 55.03774 -1.13766 39574 ft 412 kts 222°
2026-04-17 07:26 55.01586 -1.17020 39371 ft 411 kts 222°
2026-04-17 07:27 54.99409 -1.20250 39130 ft 409 kts 222°
2026-04-17 07:27 54.97275 -1.23415 38487 ft 408 kts 223°
2026-04-17 07:27 54.95087 -1.26655 37332 ft 416 kts 223°
2026-04-17 07:27 54.92896 -1.29891 36874 ft 408 kts 223°
2026-04-17 07:28 54.90737 -1.33078 36158 ft 406 kts 223°
2026-04-17 07:28 54.88583 -1.36254 35521 ft 403 kts 223°
2026-04-17 07:28 54.86479 -1.39353 34861 ft 400 kts 223°
2026-04-17 07:28 54.84353 -1.42479 34276 ft 395 kts 224°
2026-04-17 07:29 54.82267 -1.45542 33780 ft 389 kts 224°
2026-04-17 07:29 54.80230 -1.48527 33017 ft 388 kts 223°
2026-04-17 07:29 54.78174 -1.51538 32334 ft 385 kts 223°
2026-04-17 07:29 54.76125 -1.54536 31711 ft 382 kts 223°
2026-04-17 07:30 54.74100 -1.57494 31030 ft 380 kts 223°
2026-04-17 07:30 54.72070 -1.60454 30267 ft 381 kts 222°
2026-04-17 07:30 54.70049 -1.63398 29649 ft 378 kts 222°
2026-04-17 07:30 54.68045 -1.66315 29075 ft 373 kts 222°
2026-04-17 07:31 54.66073 -1.69181 28554 ft 368 kts 222°
2026-04-17 07:31 54.64152 -1.71968 28053 ft 363 kts 221°
2026-04-17 07:31 54.62229 -1.74755 27542 ft 358 kts 221°
2026-04-17 07:31 54.60326 -1.77510 27047 ft 354 kts 221°
2026-04-17 07:32 54.58438 -1.80238 26556 ft 351 kts 221°
2026-04-17 07:32 54.56593 -1.82901 26084 ft 348 kts 220°
2026-04-17 07:32 54.54537 -1.85108 25703 ft 353 kts 205°
2026-04-17 07:32 54.52129 -1.86188 25202 ft 360 kts 195°
2026-04-17 07:33 54.49665 -1.87025 24724 ft 359 kts 195°
2026-04-17 07:33 54.47220 -1.87835 24252 ft 358 kts 195°
2026-04-17 07:33 54.44799 -1.88615 23835 ft 357 kts 195°
2026-04-17 07:33 54.42362 -1.89387 23361 ft 355 kts 194°
2026-04-17 07:34 54.39926 -1.90152 22863 ft 353 kts 194°
2026-04-17 07:34 54.37519 -1.90906 22413 ft 351 kts 194°
2026-04-17 07:34 54.35120 -1.91655 21980 ft 349 kts 194°
2026-04-17 07:34 54.32731 -1.92401 21549 ft 347 kts 194°
2026-04-17 07:35 54.30359 -1.93140 21103 ft 345 kts 194°
2026-04-17 07:35 54.28035 -1.93863 20688 ft 343 kts 194°
2026-04-17 07:35 54.25759 -1.94972 20051 ft 341 kts 206°
2026-04-17 07:35 54.23555 -1.96618 19214 ft 350 kts 203°
2026-04-17 07:36 54.21249 -1.98143 18431 ft 356 kts 203°
2026-04-17 07:36 54.18948 -1.99689 17904 ft 354 kts 203°
2026-04-17 07:36 54.16692 -2.01221 17348 ft 352 kts 203°
2026-04-17 07:36 54.14423 -2.02769 16832 ft 349 kts 203°
2026-04-17 07:37 54.12172 -2.04308 16320 ft 346 kts 203°
2026-04-17 07:37 54.09938 -2.05834 15792 ft 344 kts 203°
2026-04-17 07:37 54.07750 -2.07329 15288 ft 342 kts 203°
2026-04-17 07:37 54.05544 -2.08834 14792 ft 340 kts 203°
2026-04-17 07:38 54.03364 -2.10318 14181 ft 333 kts 203°
2026-04-17 07:38 54.01204 -2.11789 13244 ft 331 kts 203°
2026-04-17 07:38 53.99082 -2.13232 12410 ft 325 kts 204°
2026-04-17 07:38 53.97003 -2.14645 11788 ft 314 kts 204°
2026-04-17 07:39 53.95029 -2.15852 11435 ft 299 kts 194°
2026-04-17 07:39 53.92979 -2.15852 11054 ft 295 kts 172°
2026-04-17 07:39 53.91082 -2.14613 10691 ft 289 kts 160°
2026-04-17 07:39 53.89293 -2.13148 10317 ft 282 kts 160°
2026-04-17 07:40 53.87550 -2.11694 9932 ft 275 kts 160°
2026-04-17 07:40 53.85850 -2.10278 9518 ft 268 kts 160°
2026-04-17 07:40 53.84192 -2.08893 9102 ft 262 kts 160°
2026-04-17 07:40 53.82572 -2.07573 8745 ft 253 kts 160°
2026-04-17 07:41 53.81036 -2.06312 8497 ft 245 kts 160°
2026-04-17 07:41 53.79502 -2.05052 8261 ft 245 kts 160°
2026-04-17 07:41 53.77967 -2.03798 8026 ft 244 kts 160°
2026-04-17 07:41 53.76436 -2.02549 7758 ft 244 kts 160°
2026-04-17 07:42 53.74904 -2.01292 7463 ft 245 kts 160°
2026-04-17 07:42 53.73362 -2.00042 7180 ft 245 kts 160°
2026-04-17 07:42 53.71811 -1.98803 6873 ft 246 kts 160°
2026-04-17 07:42 53.70269 -1.97561 6595 ft 246 kts 160°
2026-04-17 07:43 53.68740 -1.96332 6299 ft 245 kts 161°
2026-04-17 07:43 53.67136 -1.95449 6011 ft 239 kts 173°
2026-04-17 07:43 53.65524 -1.94931 5794 ft 233 kts 175°
2026-04-17 07:43 53.63946 -1.94447 5607 ft 228 kts 175°
2026-04-17 07:44 53.62389 -1.93955 5398 ft 225 kts 175°
2026-04-17 07:44 53.60853 -1.93461 5211 ft 224 kts 175°
2026-04-17 07:44 53.59332 -1.92969 5004 ft 222 kts 175°
2026-04-17 07:44 53.57854 -1.92485 4837 ft 215 kts 175°
2026-04-17 07:45 53.56395 -1.92006 4673 ft 211 kts 175°
2026-04-17 07:45 53.54956 -1.91526 4565 ft 210 kts 175°
2026-04-17 07:45 53.53541 -1.91517 4442 ft 199 kts 201°
2026-04-17 07:45 53.52402 -1.92704 4353 ft 191 kts 225°
2026-04-17 07:46 53.51540 -1.94321 4285 ft 185 kts 229°
2026-04-17 07:46 53.50712 -1.95958 4216 ft 182 kts 230°
2026-04-17 07:46 53.49922 -1.97548 4234 ft 170 kts 230°
2026-04-17 07:46 53.49183 -1.99050 4173 ft 165 kts 230°
2026-04-17 07:47 53.48464 -2.00519 4014 ft 165 kts 230°
2026-04-17 07:47 53.47735 -2.02015 3831 ft 165 kts 230°
2026-04-17 07:47 53.47017 -2.03494 3627 ft 162 kts 230°
2026-04-17 07:47 53.46319 -2.04935 3443 ft 156 kts 230°
2026-04-17 07:48 53.45644 -2.06323 3250 ft 150 kts 228°
2026-04-17 07:48 53.45004 -2.07648 3037 ft 145 kts 228°
2026-04-17 07:48 53.44380 -2.08936 2864 ft 140 kts 227°
2026-04-17 07:48 53.43768 -2.10201 2714 ft 140 kts 227°
2026-04-17 07:49 53.43150 -2.11478 2502 ft 141 kts 227°
2026-04-17 07:49 53.42528 -2.12762 2359 ft 142 kts 226°
2026-04-17 07:49 53.41916 -2.14022 2149 ft 139 kts 227°
2026-04-17 07:49 53.41325 -2.15246 1948 ft 128 kts 225°
2026-04-17 07:50 53.40779 -2.16378 1772 ft 123 kts 225°
2026-04-17 07:50 53.40219 -2.17563 1572 ft 135 kts 226°
2026-04-17 07:50 53.39623 -2.18792 1512 ft 138 kts 226°
2026-04-17 07:50 53.39021 -2.20033 1338 ft 136 kts 225°
2026-04-17 07:51 53.38418 -2.21224 1093 ft 136 kts 226°
2026-04-17 07:51 53.37817 -2.22484 838 ft 141 kts 225°
2026-04-17 07:51 53.37186 -2.23761 653 ft 142 kts 227°
2026-04-17 07:51 53.36552 -2.25069 421 ft 144 kts 228°
2026-04-17 07:52 53.35918 -2.26372 286 ft 142 kts 229°
2026-04-17 07:52 53.35367 -2.27511 245 ft 99 kts 231°
2026-04-17 07:52 53.35078 -2.28107 238 ft 47 kts 231°
2026-04-17 07:52 53.34952 -2.28542 232 ft 26 kts 259°
2026-04-17 07:53 53.34971 -2.28743 230 ft 19 kts 333°
2026-04-17 07:53 53.35068 -2.28638 232 ft 19 kts 51°
2026-04-17 07:53 53.35158 -2.28450 229 ft 23 kts 51°
2026-04-17 07:53 53.35256 -2.28251 236 ft 23 kts 48°
2026-04-17 07:54 53.35369 -2.28060 239 ft 23 kts 44°
2026-04-17 07:54 53.35497 -2.27917 242 ft 20 kts
2026-04-17 07:54 53.35648 -2.27891 244 ft 22 kts
2026-04-17 07:54 53.35796 -2.27864 252 ft 21 kts
2026-04-17 07:55 53.35936 -2.27853 258 ft 20 kts 349°
2026-04-17 07:55 53.36058 -2.27997 258 ft 23 kts 317°
2026-04-17 07:55 53.36165 -2.28163 258 ft 21 kts 313°
2026-04-17 07:55 53.36272 -2.28348 257 ft 21 kts 315°
2026-04-17 07:56 53.36391 -2.28481 257 ft 19 kts 345°
2026-04-17 07:56 53.36499 -2.28619 257 ft 16 kts 314°
2026-04-17 07:56 53.36579 -2.28757 257 ft 15 kts 315°
2026-04-17 07:56 53.36643 -2.28766 257 ft 3 kts 36°
2026-04-17 07:57 53.36653 -2.28751 257 ft 1 kts 46°
2026-04-17 07:57 53.36663 -2.28728 257 ft 4 kts 54°
2026-04-17 07:57 53.36670 -2.28674 257 ft 6 kts 113°
2026-04-17 07:57 53.36644 -2.28621 257 ft 4 kts 134°
2026-04-17 07:58 53.36642 -2.28618 257 ft 0 kts 134°